sat.trackr.live / text

‹ back to catalog

NINGXIA-1 2

NORAD 44780 · 2019-076B

PAYLOAD ACTIVE UNKNOWN

§ Identity

Operator
Country
PRC
Launch date
2019-11-13
Launch site
TAISC
Launch vehicle
Mass (kg)
RCS (m²)

External: N2YO · Heavens-Above · Gunter

§ Orbital elements

Epoch: 2026-05-25T05:17:32.578080Z

Period
102.71 min
Inclination
45.0092°
Eccentricity
0.0006330
Mean motion
14.02053455 rev/d
Perigee alt
882.1 km
Apogee alt
891.3 km
Semi-major
7,264.8 km
B*
5.1133e-5
RAAN
282.8194°
Arg perigee
37.0810°
Mean anomaly
323.0460°
Rev number
33,463

§ Raw data

NINGXIA-1 21 44780U 19076B   26145.22051595 -.00000051  00000+0  51133-4 0  99962 44780  45.0092 282.8194 0006330  37.0810 323.0460 14.02053455334636

JSON: /api/v1/satellites/44780 · /tle

For live sub-satellite position, see the globe view (requires WebGL).

§ Visibility from observer

Set your observer location to see the next 7 days of passes ≥ 10°. The values pass through the URL so the page stays shareable.

No JS? Fill the form by hand. The geolocation button needs JavaScript.

§ Radio — SatNOGS DB

ModeDescriptionDownlinkUplink
FM S-band telemetry 2.289 GHz

1 transmitter · refreshed weekly from db.satnogs.org